Lid_Strength_Index
3 3 3 3 3 3 3 3 3 3 3 3 3 3 3 2 2 2 2 2 2 2 2 2 2 1 5 9 9 5 2 4 7 6 6 6 7 8 10 10 9 10 10 9 9 9 9
3 3 3 3 3 3 3 3 4 4 3 3 3 3 3 2 2 2 2 2 2 2 2 2 1 1 7 12 5 5 7 7 8 8 6 6 7 7 8 9 10 9 10 9 9 9 8
3 3 4 4 3 3 3 3 4 4 3 3 3 3 3 3 2 2 2 2 2 2 2 1 1 4 9 10 6 7 7 8 8 8 8 6 6 8 8 10 8 9 11 9 9 8 9
3 3 3 3 4 4 3 4 4 4 4 3 3 3 3 3 3 2 2 3 2 2 1 1 1 5 9 5 6 7 7 8 7 7 7 6 7 8 9 8 9 10 10 13 10 10 9
3 3 3 4 4 4 4 4 4 4 4 4 3 3 3 3 3 3 3 3 2 1 1 2 5 8 12 5 8 7 7 9 7 6 6 5 6 8 9 11 12 12 14 13 12 9 9
4 4 4 4 4 4 4 4 5 4 4 4 4 3 3 3 3 3 4 3 3 3 4 5 8 10 9 11 9 8 7 7 8 8 9 8 8 10 10 11 16 15 14 13 14 11 11
5 4 4 4 4 4 4 4 5 4 4 4 4 3 3 3 3 3 5 5 7 8 7 11 11 11 11 9 7 9 8 9 8 10 14 11 11 13 13 12 13 13 13 14 12 10 11
5 5 5 5 5 5 5 5 5 4 4 4 4 3 3 3 3 4 6 8 8 7 12 8 10 10 9 9 12 10 7 11 11 14 12 12 13 12 12 12 13 13 13 13 11 10 11
5 5 5 5 5 5 5 5 5 4 4 4 4 3 3 3 4 7 9 9 7 6 11 12 10 11 10 10 12 12 10 11 13 14 13 15 13 12 12 12 12 12 13 13 12 10 10
5 5 5 5 5 5 5 5 5 5 4 4 3 3 3 4 7 9 9 8 7 5 15 15 13 11 10 10 13 9 9 11 12 14 13 14 12 14 12 12 13 15 10 11 12 12 15
6 6 5 5 5 5 5 5 5 5 4 4 3 3 3 5 8 10 9 8 6 8 18 14 13 8 10 13 12 12 8 10 14 14 13 15 15 14 13 13 12 14 11 12 12 13 13
6 6 5 5 5 5 5 5 4 4 4 4 3 3 4 8 9 9 9 7 9 15 21 16 13 14 14 13 13 11 11 10 11 13 12 13 11 11 11 12 11 11 12 12 10 12 19
6 6 6 5 5 5 5 5 4 4 4 4 4 4 7 8 11 9 9 10 15 21 15 17 16 14 15 15 14 13 14 15 16 18 17 14 13 11 10 12 11 12 13 16 18 19 18
6 6 6 6 5 5 5 5 5 5 4 4 4 6 8 8 9 10 10 13 22 18 17 14 15 15 16 15 15 14 15 16 14 14 16 18 19 14 11 12 14 14 14 17 21 19 16
6 6 6 6 6 5 5 5 5 5 5 5 6 9 9 8 9 10 12 20 19 17 16 16 15 17 17 15 15 15 15 15 14 13 17 18 17 11 11 10 12 15 16 14 18 16 18
7 7 6 6 6 5 5 5 5 5 5 6 10 11 10 9 9 10 14 18 16 14 15 15 18 16 18 17 17 16 16 14 14 12 12 14 19 13 12 10 10 14 12 18 17 21 21
7 7 7 6 5 5 5 5 5 5 5 7 12 13 10 9 9 13 18 17 15 13 13 15 17 17 17 17 16 16 15 13 12 13 12 13 15 15 13 14 15 15 17 16 16 17 20
7 7 7 6 6 5 5 5 5 5 6 10 12 16 9 10 15 16 17 15 13 14 13 14 14 15 16 16 17 16 15 13 11 11 15 12 14 17 16 11 10 12 15 16 20 19 17
7 7 7 7 6 6 5 5 5 5 7 11 14 15 10 11 18 18 15 16 14 15 15 15 15 14 14 16 18 15 14 11 11 13 14 12 14 18 17 14 12 14 13 14 15 15 17
7 7 7 7 7 6 6 6 5 5 7 12 15 17 15 14 15 16 17 17 16 14 14 14 14 14 15 16 14 16 15 13 11 11 8 10 13 16 19 16 14 16 14 13 15 17 18
7 7 7 7 7 7 6 6 6 6 7 12 15 17 16 18 17 16 16 16 17 18 14 13 15 15 16 18 16 16 15 14 12 10 10 11 15 13 13 12 12 13 13 14 17 17 19
7 7 7 7 7 7 7 7 6 6 8 12 16 17 15 16 16 16 16 17 17 17 16 16 16 15 14 16 16 17 15 14 14 11 11 10 14 13 14 12 12 13 12 13 15 16 17
8 8 7 7 7 7 7 7 7 7 9 13 12 12 15 16 16 17 17 17 17 15 15 14 14 15 15 14 12 12 12 11 11 13 13 13 14 14 16 12 12 15 15 14 14 14 16
8 8 7 7 7 7 7 7 7 7 9 11 12 14 17 18 17 17 16 16 16 16 16 14 13 15 13 10 10 11 11 11 10 10 10 13 14 12 15 13 20 14 12 12 14 14 13
8 8 8 7 7 7 7 7 7 7 8 11 12 13 15 19 17 16 16 16 15 15 15 14 13 12 11 12 15 17 17 16 14 11 12 11 13 15 16 16 13 14 13 14 14 16 12
8 8 8 7 7 7 7 7 7 7 8 11 12 11 13 17 18 16 16 16 17 17 16 15 11 11 11 14 17 21 21 18 18 16 11 11 11 12 14 18 21 15 11 9 10 17 12
8 8 8 8 7 7 7 7 7 8 7 9 11 10 12 16 15 14 16 17 15 16 17 15 14 14 12 16 19 20 20 15 19 19 17 14 13 15 15 16 14 11 10 9 17 17 11
8 8 8 8 7 7 7 7 7 8 7 9 11 9 12 15 14 13 13 15 15 15 17 15 16 14 14 18 18 18 18 16 16 14 14 15 16 16 14 17 19 8 9 14 11 9 9
8 8 8 8 7 7 7 7 7 8 8 9 12 11 10 13 15 12 11 11 11 12 13 13 15 14 13 15 16 15 16 14 15 17 10 14 12 13 13 13 7 7 8 8 8 9 9